Location: Brahman Valley
(40.6513°N, 111.8855°W)
Time: 12:42:50
(UTC+00:00)

Vanguard 2 - All Passes

Search period start: 13 May 2021 00:00
Search period end: 23 May 2021 00:00
Orbit: 552 x 2938 km, 32.9° (Epoch: 12 May)

Date Brightness Start Highest point End Pass type
(mag) Time Alt. Az. Time Alt. Az. Time Alt. Az.
13 May - 12:00:42 10° SSW 12:08:52 37° SSE 12:21:19 10° E daylight
13 May - 14:07:29 10° WSW 14:18:33 61° S 14:35:05 10° E daylight
13 May - 16:16:20 10° W 16:30:06 60° S 16:47:34 10° ESE daylight
13 May - 18:27:02 10° W 18:41:42 41° SSW 18:57:07 10° SSE daylight
13 May - 20:42:42 10° WSW 20:51:48 16° SW 21:00:30 10° SSW daylight
14 May - 10:14:20 10° SSE 10:18:35 15° SE 10:23:51 10° ESE visible
14 May - 12:17:46 10° SW 12:26:12 44° SSE 12:39:27 10° E daylight
14 May - 14:25:04 10° WSW 14:36:16 63° S 14:52:59 10° E daylight
14 May - 16:34:07 10° W 16:47:51 56° SSW 17:05:02 10° SE daylight
14 May - 18:45:18 10° W 18:59:09 34° SW 19:13:37 10° SSE daylight
14 May - 21:06:04 10° WSW 21:08:57 11° SW 21:11:47 10° SW daylight
15 May - 10:30:07 10° S 10:35:34 21° SE 10:43:04 10° E visible
15 May - 12:35:01 10° SW 12:43:40 50° SSE 12:57:30 10° E daylight
15 May - 14:42:41 10° WSW 14:54:03 63° S 15:10:49 10° ESE daylight
15 May - 16:51:58 10° W 17:05:33 50° SSW 17:22:19 10° SE daylight
15 May - 19:03:55 10° W 19:16:33 27° SW 19:29:40 10° S daylight
16 May - 10:46:35 10° SSW 10:52:40 27° SE 11:01:39 10° E visible
16 May - 12:52:24 10° WSW 13:01:13 55° SSE 13:15:29 10° E daylight
16 May - 15:00:21 10° W 15:11:49 60° S 15:28:33 10° ESE daylight
16 May - 17:09:54 10° W 17:23:12 44° SSW 17:39:22 10° SE daylight
16 May - 19:23:07 10° W 19:33:53 21° SW 19:45:01 10° S daylight
17 May - 11:03:26 10° SSW 11:09:54 34° SSE 11:19:55 10° E visible
17 May - 13:09:53 10° WSW 13:18:52 58° S 13:33:26 10° E daylight
17 May - 15:18:04 10° W 15:29:35 56° SSW 15:46:10 10° ESE daylight
17 May - 17:28:00 10° W 17:40:47 37° SSW 17:56:06 10° SSE daylight
17 May - 19:43:36 10° WSW 19:51:13 14° SW 19:59:02 10° SSW daylight
18 May - 09:17:41 10° SSE 09:20:04 12° SE 09:22:47 10° ESE visible
18 May - 11:20:32 10° SW 11:27:16 41° SSE 11:38:02 10° E visible
18 May - 13:27:27 10° WSW 13:36:33 59° S 13:51:19 10° ESE daylight
18 May - 15:35:50 10° W 15:47:19 51° SSW 16:03:35 10° SE daylight
18 May - 17:46:21 10° W 17:58:21 30° SSW 18:12:24 10° SSE daylight
19 May - 09:33:09 10° S 09:37:07 18° SE 09:42:18 10° ESE visible
19 May - 11:37:49 10° SW 11:44:43 47° SSE 11:56:03 10° E daylight
19 May - 13:45:03 10° WSW 13:54:17 58° S 14:09:07 10° ESE daylight
19 May - 15:53:40 10° W 16:05:02 45° SSW 16:20:47 10° SE daylight
19 May - 18:05:07 10° W 18:15:52 23° SW 18:28:09 10° S daylight
20 May - 09:49:36 10° SSW 09:54:17 24° SE 10:00:53 10° E visible
20 May - 11:55:14 10° WSW 12:02:16 51° SSE 12:13:59 10° E daylight
20 May - 14:02:43 10° W 14:12:01 55° S 14:26:49 10° ESE daylight
20 May - 16:11:38 10° W 16:22:43 38° SSW 16:37:42 10° SE daylight
20 May - 18:24:43 10° WSW 18:33:22 17° SW 18:42:57 10° S daylight
21 May - 10:06:29 10° SSW 10:11:33 30° SSE 10:19:07 10° E visible
21 May - 12:12:43 10° WSW 12:19:53 54° S 12:31:54 10° ESE daylight
21 May - 14:20:25 10° W 14:29:46 50° SSW 14:44:21 10° ESE daylight
21 May - 16:29:49 10° W 16:40:23 31° SSW 16:54:14 10° SSE daylight
21 May - 18:46:40 10° WSW 18:50:52 11° SW 18:55:16 10° SSW daylight
22 May - 10:23:37 10° SW 10:28:55 37° SSE 10:37:10 10° E visible
22 May - 12:30:16 10° WSW 12:37:33 54° S 12:49:43 10° ESE daylight
22 May - 14:38:11 10° W 14:47:30 45° SSW 15:01:42 10° SE daylight
22 May - 16:48:20 10° W 16:58:02 25° SSW 17:10:16 10° SSE daylight
